1384128034415,2.51569
1384128094415,2.51962
1384128154415,2.52290
1384128214415,2.52004
1384128274415,2.53045
1384128334415,2.50086
1384128394415,2.54468
1384128454414,2.52361
1384128514414,2.51983
1384128574414,2.51337
1384128634414,2.50866
1384128694414,2.50935
1384128754414,2.52570
1384128814414,2.55453
1384128874414,2.51826
1384128934415,2.56377
1384128994415,2.50043
1384129054415,2.54680
1384129114414,2.51953
1384129174414,2.49656
1384129234414,2.52115
1384129294415,2.54235
1384129354415,2.53296
1384129414415,2.52430
1384129474415,2.53262
1384129534415,2.54350
1384129594415,2.52830
1384129654415,2.52597
1384129714415,2.53454
1384129774414,2.54328
1384129834414,2.58897
1384129894414,2.58736
1384129954414,2.59331
1384130014414,2.58544
1384130074414,2.61795
1384130134414,2.64151
1384130194414,2.61474
1384130254415,2.61960
1384130314415,2.62390
1384130374415,2.60010
1384130434414,2.60058
1384130494414,2.57783
1384130554414,2.58786
1384130614415,2.57826
1384130674415,2.57889
1384130734415,2.58984
1384130794415,2.58216
1384130854415,2.58077
1384130914415,2.60699
1384130974415,2.63173
1384131034415,2.60736
1384131094415,2.60304
1384131154414,2.60793
1384131214414,2.61568
1384131274414,2.60192
1384131334414,2.60815
1384131394414,2.53814
1384131454414,2.54469
1384131514414,2.53911
1384131574414,2.56448
1384131634424,2.51555
1384131694424,2.53753
1384131754424,2.56553
1384131814424,2.54265
1384131874424,2.53182
1384131934424,2.51110
1384131994424,2.53284
1384132054424,2.54699
1384132114424,2.55509
1384132174424,2.50824
1384132234424,2.53336
1384132294424,2.39869
1384132834424,2.49895
1384132894424,2.39208
1384132954424,2.49502
1384133014424,2.49433
1384133074424,2.53442
1384133134424,2.54076
1384133194424,2.53708
1384133254424,2.50688
1384133314424,2.50482
1384133374424,2.48881
1384133434424,2.53039
1384133494424,2.50955
1384133554424,2.51093
1384133614424,2.50868
1384133674424,2.52702
1384133734424,2.50327
1384133794424,2.53559
1384133854424,2.52674
1384133914424,2.51614
1384133974424,2.53312
1384134034424,2.51790
1384134094424,2.49694
1384134154424,2.49690
1384134214424,2.52935
1384134274424,2.51070
1384134334424,2.49818
1384134394424,2.52169
1384134454424,2.54285
1384134514424,2.52202
1384134574424,2.53162
1384134634424,2.52430
1384134694424,2.52101
1384134754424,2.50073
1384134814424,2.54241
1384134874424,2.50556
1384134934424,2.54218
1384134994424,2.52307
1384135054424,2.53367
1384135114424,2.51698
1384135174424,2.52185
1384135234434,2.53413
1384135294434,2.52736
1384135354434,2.52730
1384135414434,2.52843
1384135474434,2.53217
1384135534434,2.56203
1384135594434,2.54362
1384135654434,2.53147
1384135714434,2.52926
1384135774434,2.53777
1384135834434,2.54538
1384135894434,2.56396
1384135954434,2.57342
1384136014434,2.55058
1384136074434,2.51784
1384136134434,2.54931
1384136194434,2.52741
1384136254434,2.54036
1384136314434,2.53752
1384136374434,2.55552
1384136434434,2.56441
1384136494434,2.55295
1384136554434,2.54941
1384136614434,2.54635
1384136674434,2.51603
1384136734434,2.52987
1384136794434,2.55931
1384136854434,2.55371
1384136914434,2.55174
1384136974434,2.54775
1384137034434,2.54791
1384137094434,2.53904
1384137154434,2.54087
1384137214434,2.54039
1384137274434,2.54675
1384137334434,2.54906
1384137394434,2.53077
1384137454434,2.61160
1384137514434,2.51627
1384137574434,2.53950
1384137634434,2.53919
1384137694434,2.54884
1384137754434,2.53847
1384137814434,2.55617
1384137874434,2.55583
1384137934434,2.55585
1384137994434,2.53974
1384138054434,2.53029
1384138114434,2.55220
1384138174434,2.54863
1384138234434,2.56463
1384138294434,2.52441
1384138354434,2.55018
1384138414434,2.54985
1384138474434,2.60793
1384138534434,2.58554
1384138594434,2.55709
1384138654434,2.53568
1384138714434,2.56966
1384138774434,2.55421
1384138834444,2.55115
1384138894444,2.56627
1384138954444,2.55887
1384139014444,2.56880
1384139074444,2.54279
1384139134444,2.57760
1384139194444,2.58194
1384139254444,2.54617
1384139314444,2.58433
1384139374444,2.53472
1384139434444,2.55808
1384139494444,2.54838
1384139554444,2.56640
1384139614444,2.55481
1384139674444,2.55676
1384139734444,2.57256
1384139794444,2.55505
1384139854444,2.54678
1384139914444,2.56556
1384139974444,2.57917
1384140034444,2.55030
1384140094444,2.53207
1384140154444,2.53024
1384140214444,2.57542
1384140274444,2.53355
1384140334444,2.56983
1384140394444,2.56683
1384140454444,2.56633
1384140514444,2.58009
1384140574444,2.53409
1384140634444,2.56080
1384140694444,2.56658
1384140754444,2.54157
1384140814444,2.55477
1384140874444,2.53200
1384140934444,2.53244
1384140994444,2.54141
1384141054444,2.53585
1384141114444,2.60566
1384141174444,2.57857
1384141234444,2.53214
1384141294444,2.54560
1384141354444,2.55756
1384141414444,2.56524
1384141474444,2.52574
1384141534444,2.56199
1384141594444,2.55138
1384141654444,2.59693
1384141714444,2.52486
1384141774444,2.60670
1384141834444,2.55857
1384141894444,2.58086
1384141954444,2.56083
1384142014444,2.51721
1384142074444,2.57594
1384142134444,2.54614
1384142194444,2.53475
1384142254444,2.54972
1384142314444,2.53003
1384142374444,2.55857
1384142434453,2.57228
1384142494453,2.54861
1384142554453,2.53430
1384142614453,2.51687
1384142674453,2.53711
1384142734453,2.55233
1384142794453,2.55129
1384142854453,2.52084
1384142914453,2.54160
1384142974453,2.54338
1384143034453,2.55740
1384143094453,2.53157
1384143154453,2.55507
1384143214453,2.54745
1384143274453,2.55970
1384143334453,2.54575
1384143394453,2.53728
1384143454453,2.53030
1384143514453,2.54632
1384143574453,2.55100
1384143634453,2.53982
1384143694453,2.51709
1384143754453,2.54284
1384143814453,2.51533
1384143874453,2.54682
1384143934453,2.53400
1384143994453,2.56289
1384144054453,2.51457
1384144114453,2.52961
1384144174453,2.55602
1384144234453,2.51713
1384144294453,2.51595
1384144354453,2.51862
1384144414453,2.53400
1384144474453,2.52661
1384144534453,2.53106
1384144594453,2.54284
1384144654453,2.51228
1384144714453,2.51425
1384144774453,2.54017
1384144834453,2.53009
1384144894453,2.54674
1384144954453,2.52528
1384145014453,2.50173
1384145074453,2.54451
1384145134453,2.49996
1384145194453,2.51277
1384145254453,2.52529
1384145314453,2.52481
1384145374453,2.53880
1384145434453,2.54628
1384145494453,2.53995
1384145554453,2.52898
1384145614453,2.50722
1384145674453,2.52440
1384145734453,2.52345
1384145794453,2.51529
1384145854453,2.50334
1384145914453,2.52146
1384145974453,2.55473
1384146034463,2.53575
1384146094463,2.50957
1384146154463,2.52785
1384146214463,2.52879
1384146274463,2.52387
1384146334463,2.53709
1384146394463,2.51712
1384146454463,2.52850
1384146514463,2.51956
1384146574463,2.53414
1384146634463,2.51391
1384146694463,2.49844
1384146754463,2.50158
1384146814463,2.50098
1384146874463,2.50715
1384146934463,2.52455
1384146994463,2.53155
1384147054463,2.53388
1384147114463,2.53309
1384147174463,2.52820
1384147234463,2.54276
1384147294463,2.53009
1384147354463,2.51705
1384147414463,2.51808
1384147474463,2.52023
1384147534463,2.49021
1384147594463,2.51121
1384147654463,2.53489
1384147714463,2.52241
1384147774463,2.52636
1384147834463,2.53722
1384147894463,2.50016
1384147954463,2.54489
1384148014463,2.51781
1384148074463,2.51852
1384148134463,2.51849
1384148194463,2.50613
1384148254463,2.52999
1384148314463,2.54444
1384148374463,2.53134
1384148434463,2.52036
1384148494463,2.51329
1384148554463,2.48882
1384148614463,2.54917
1384148674463,2.54316
1384148734463,2.53823
1384148794463,2.52319
1384148854463,2.52059
1384148914463,2.54197
1384148974463,2.53346
1384149034463,2.51860
1384149094463,2.52385
1384149154463,2.52779
1384149214463,2.53433
1384149274463,2.53227
1384149334463,2.54305
1384149394463,2.52360
1384149454463,2.53141
1384149514463,2.50064
1384149574463,2.52531
1384149634473,2.50404
1384149694473,2.52411
1384149754473,2.53381
1384149814473,2.51937
1384149874473,2.49958
1384149934473,2.53274
1384149994473,2.52741
1384150054473,2.52383
1384150114473,2.53721
1384150174473,2.53831
1384150234473,2.52678
1384150294473,2.53963
1384150354473,2.51282
1384150414473,2.52094
1384150474473,2.54525
1384150534473,2.58183
1384150594473,2.56101
1384150654473,2.55947
1384150714473,2.56474
1384150774473,2.52971
1384150834473,2.54901
1384150894473,2.57424
1384150954473,2.53685
1384151014473,2.51970
1384151074473,2.60347
1384151134473,2.53915
1384151194473,2.56260
1384151254473,2.52729
1384151314473,2.53111
1384151374473,2.56691
1384151434473,2.55073
1384151494473,2.51132
1384151554473,2.54681
1384151614473,2.54472
1384151674473,2.51170
1384151734473,2.52102
1384151794473,2.54519
1384151854473,2.54742
1384151914473,2.53943
1384151974473,2.52735
1384152034473,2.54253
1384152094473,2.55392
1384152154473,2.54995
1384152214473,2.55080
1384152274473,2.56725
1384152334473,2.52811
1384152394473,2.54240
1384152454473,2.54199
1384152514473,2.54504
1384152574473,2.54034
1384152634473,2.53898
1384152694473,2.53557
1384152754473,2.52580
1384152814473,2.50322
1384152874473,2.53247
1384152934473,2.53021
1384152994473,2.53418
1384153054473,2.54382
1384153114473,2.53313
1384153174473,2.53958
1384153234483,2.54265
1384153294483,2.54410
1384153354483,2.53429
1384153414483,2.55197
1384153474483,2.53580
1384153534483,2.53056
1384153594483,2.54602
1384153654483,2.55396
1384153714483,2.52617
1384153774483,2.54598
1384153834483,2.53207
1384153894483,2.53688
1384153954483,2.54517
1384154014483,2.56855
1384154074483,2.56094
1384154134483,2.57938
1384154194483,2.55064
1384154254483,2.59084
1384154314483,2.53954
1384154374483,2.57293
1384154434483,2.55234
1384154494483,2.56626
1384154554483,2.55490
1384154614483,2.57718
1384154674483,2.56398
1384154734483,2.54780
1384154794483,2.57966
1384154854483,2.58592
1384154914483,2.57319
1384154974483,2.55869
1384155034483,2.56147
1384155094483,2.57261
1384155154483,2.55592
1384155214483,2.53693
1384155274483,2.55834
1384155334483,2.55703
1384155394483,2.59332
1384155454483,2.59028
1384155514483,2.57032
1384155574483,2.56617
1384155634483,2.57145
1384155694483,2.55261
1384155754483,2.56707
1384155814483,2.57441
1384155874483,2.57834
1384155934483,2.57330
1384155994483,2.55016
1384156054483,2.57142
1384156114483,2.59823
1384156174483,2.56555
1384156234483,2.56626
1384156294483,2.56962
1384156354483,2.59094
1384156414483,2.56803
1384156474483,2.57425
1384156534483,2.58127
1384156594483,2.58711
1384156654483,2.56232
1384156714483,2.54721
1384156774483,2.58336
1384156834493,2.57755
1384156894493,2.55077
1384156954493,2.56024
1384157014493,2.56078
1384157074493,2.55686
1384157134493,2.57317
1384157194493,2.55496
1384157254493,2.54123
1384157314493,2.58308
1384157374493,2.55100
1384157434493,2.55374
1384157494493,2.57013
1384157554493,2.61069
1384157614493,2.55380
1384157674493,2.56157
1384157734493,2.54855
1384157794493,2.56386
1384157854493,2.57624
1384157914493,2.55656
1384157974493,2.57230
1384158034493,2.56612
1384158094493,2.54992
1384158154493,2.57112
1384158214493,2.58845
1384158274493,2.57108
1384158334493,2.53969
1384158394493,2.57686
1384158454493,2.57950
1384158514493,2.56967
1384158574493,2.57544
1384158634493,2.57688
1384158694493,2.55744
1384158754493,2.58308
1384158814493,2.56265
1384158874493,2.55785
1384158934493,2.55862
1384158994493,2.56964
1384159054493,2.57563
1384159114493,2.54409
1384159174493,2.58120
1384159234493,2.57556
1384159294493,2.55058
1384159354493,2.58520
1384159414493,2.56784
1384159474493,2.56691
1384159534493,2.65448
1384159594493,2.53648
1384159654493,2.59045
1384159714493,2.57701
1384159774493,2.55453
1384159834493,2.56967
1384159894493,2.57521
1384159954493,2.55711
1384160014493,2.53966
1384160074493,2.58352
1384160134493,2.55794
1384160194493,2.54218
1384160254493,2.55482
1384160314493,2.54936
1384160374493,2.55237
1384160434504,2.56960
1384160494504,2.55758
1384160554504,2.57931
1384160614504,2.58065
1384160674504,2.55833
1384160734504,2.55878
1384160794504,2.55836
1384160854504,2.60173
1384160914504,2.55695
1384160974504,2.55393
1384161034504,2.58224
1384161094504,2.56414
1384161154504,2.56698
1384161214504,2.58650
1384161274504,2.56794
1384161334504,2.56425
1384161394504,2.59542
1384161454504,2.58834
1384161514504,2.60648
1384161574504,2.59673
1384161634504,2.56903
1384161694504,2.57858
1384161754504,2.57202
1384161814504,2.60444
1384161874504,2.61005
1384161934504,2.59033
1384161994504,2.57601
1384162054504,2.59747
1384162114504,2.57254
1384162174504,2.57234
1384162234504,2.58237
1384162294504,2.58962
1384162354504,2.57260
1384162414504,2.58705
1384162474504,2.55878
1384162534504,2.59428
1384162594504,2.58022
1384162654504,2.56584
1384162714504,2.59323
1384162774504,2.59845
1384162834504,2.57056
1384162894504,2.59039
1384162954504,2.57772
1384163014504,2.57691
1384163074504,2.61064
1384163134504,2.59206
1384163194504,2.57490
1384163254504,2.60256
1384163314504,2.66333
1384163374504,2.59374
1384163434504,2.59384
1384163494504,2.57349
1384163554504,2.61797
1384163614504,2.60045
1384163674504,2.60123
1384163734504,2.59984
1384163794504,2.63017
1384163854504,2.58333
1384163914504,2.60141
1384163974504,2.60225
1384164034514,2.60281
1384164094514,2.59241
1384164154514,2.61304
1384164214514,2.59684
1384164274514,2.61187
1384164334514,2.63406
1384164394514,2.66669
1384164454514,2.61929
1384164514514,2.63275
1384164574514,2.63696
1384164634514,2.61032
1384164694514,2.63324
1384164754514,2.61924
1384164814514,2.62991
1384164874514,2.62238
1384164934514,2.60645
1384164994514,2.57860
1384165054514,2.65699
1384165114514,2.65447
1384165174514,2.63458
1384165234514,2.60752
1384165294514,2.64984
1384165354514,2.62004
1384165414514,2.62459
1384165474514,2.61181
1384165534514,2.63804
1384165594514,2.64022
1384165654514,2.64424
1384165714514,2.63982
1384165774514,2.59024
1384165834514,2.58840
1384165894514,2.62196
1384165954514,2.62748
1384166014514,2.60512
1384166074514,2.63460
1384166134514,2.60767
1384166194514,2.63375
1384166254514,2.65256
1384166314514,2.60826
1384166374514,2.63825
1384166434514,2.58710
1384166494514,2.62434
1384166554514,2.60711
1384166614514,2.62348
1384166674514,2.60929
1384166734514,2.61156
1384166794514,2.61753
1384166854514,2.60196
1384166914514,2.63215
1384166974514,2.63438
1384167034514,2.63054
1384167094514,2.61569
1384167154514,2.63216
1384167214514,2.64657
1384167274514,2.61247
1384167334514,2.63538
1384167394514,2.63750
1384167454514,2.66222
1384167514514,2.62921
1384167574514,2.63985
1384167634525,2.64919
1384167694525,2.64391
1384167754525,2.65022
1384167814525,2.64949
1384167874525,2.65477
1384167934525,2.67641
1384167994525,2.65314
1384168054525,2.67868
1384168114525,2.68227
1384168174525,2.68166
1384168234525,2.71599
1384168294525,2.70209
1384168354525,2.74252
1384168414525,2.72894
1384168474525,2.77955
1384168534525,2.77621
1384168594525,2.81422
1384168654525,2.78976
1384168714525,2.81699
1384168774525,2.83390
1384168834525,2.82213
1384168894525,2.87594
1384168954525,2.91309
1384169014525,2.89189
1384169074525,2.88757
1384169134525,2.88196
1384169194525,2.86602
1384169254525,2.82326
1384169314525,2.87638
1384169374525,2.84164
1384169434525,2.83879
1384169494525,2.85361
1384169554525,2.83201
1384169614525,2.84249
1384169674525,2.85945
1384169734525,2.84239
1384169794525,2.85122
1384169854525,2.82098
1384169914525,2.79736
1384169974525,2.76859
1384170034525,2.79129
1384170094525,2.78837
1384170154525,2.80389
1384170214525,2.77387
1384170274525,2.71822
1384170334525,2.75989
1384170394525,2.74606
1384170454525,2.76134
1384170514525,2.74484
1384170574525,2.78111
1384170634525,2.76326
1384170694525,2.74499
1384170754525,2.76528
1384170814525,2.78736
1384170874525,2.76117
1384170934525,2.74314
1384170994525,2.78238
1384171054525,2.78922
1384171114525,2.75032
1384171174525,2.75861
1384171234536,2.79506
1384171294536,2.79186
1384171354536,2.80494
1384171414536,2.79466
1384171474536,2.80944
1384171534536,2.98876
1384171594536,2.88971
1384171654536,2.80018
1384171714536,2.83364
1384171774536,2.84165
1384171834536,2.82758
1384171894536,2.84214
1384171954536,2.83160
1384172014536,2.81660
1384172074536,2.87035
1384172134536,2.85821
1384172194536,2.87238
1384172254536,2.90100
1384172314536,2.88337
1384172374536,2.88484
1384172434536,2.90530
1384172494536,2.90499
1384172554536,2.86254
1384172614536,2.87541
1384172674536,2.88518
1384172734536,2.86371
1384172794536,2.91384
1384172854536,2.87310
1384172914536,2.88631
1384172974536,2.85683
1384173034536,2.86746
1384173094536,2.83967
1384173154536,2.86287
1384173214536,2.85398
1384173274536,2.85443
1384173334536,2.78181
1384173394536,2.79431
1384173454536,2.84855
1384173514536,2.80332
1384173574536,2.81863
1384173634536,2.80362
1384173694536,2.79078
1384173754536,2.78908
1384173814536,2.76980
1384173874536,2.79020
1384173934536,2.79333
1384173994536,2.78216
1384174054536,2.78530
1384174114536,2.77525
1384174174536,2.80648
1384174234536,2.80356
1384174294536,2.79283
1384174354536,2.76182
1384174414536,2.76679
1384174474536,2.78489
1384174534536,2.75490
1384174594536,2.77124
1384174654536,2.77501
1384174714536,2.74663
1384174774536,2.76052
1384174834548,2.73773
1384174894548,2.76620
1384174954548,2.76756
1384175014548,2.77773
1384175074548,2.73125
1384175134548,2.71541
1384175194548,2.76697
1384175254548,2.75026
1384175314548,2.73924
1384175374548,2.76213
1384175434548,2.76641
1384175494548,2.76738
1384175554548,2.76860
1384175614548,2.73201
1384175674548,2.74313
1384175734548,2.73909
1384175794548,2.73631
1384175854548,2.72166
1384175914548,2.71985
1384175974548,2.74740
1384176034548,2.76231
1384176094548,2.75028
1384176154548,2.73505
1384176214548,2.73713
1384176274548,2.72062
1384176334548,2.73201
1384176394548,2.76673
1384176454548,2.74038
1384176514548,2.76546
1384176574548,2.75430
1384176634548,2.73028
1384176694548,2.74159
1384176754548,2.72207
1384176814548,2.76605
1384176874548,2.75490
1384176934548,2.73748
1384176994548,2.75687
1384177054548,2.77495
1384177114548,2.75437
1384177174548,2.75190
1384177234548,2.75067
1384177294548,2.73384
1384177354548,2.75025
1384177414548,2.75398
1384177474548,2.75896
1384177534548,2.75106
1384177594548,2.74712
1384177654548,2.75824
1384177714548,2.74821
1384177774548,2.78818
1384177834548,2.76668
1384177894548,2.78222
1384177954548,2.76325
1384178014548,2.78051
1384178074548,2.77166
1384178134548,2.77240
1384178194548,2.77513
1384178254548,2.78294
1384178314548,2.76601
1384178374548,2.76597
1384178434559,2.76914
1384178494559,2.78085
1384178554559,2.73867
1384178614559,2.78138
1384178674559,2.74955
1384178734559,2.78041
1384178794559,2.78250
1384178854559,2.80585
1384178914559,2.76610
1384178974559,2.76446
1384179034559,2.81213
1384179094559,2.77162
1384179154559,2.78846
1384179214559,2.80806
1384179274559,2.81226
1384179334559,2.77568
1384179394559,2.77470
1384179454559,2.80739
1384179514559,2.78179
1384179574559,2.80729
1384179634559,2.80147
1384179694559,2.80983
1384179754559,2.79046
1384179814559,2.79809
1384179874559,2.79091
1384179934559,2.80280
1384179994559,2.78800
1384180054559,2.78785
1384180114559,2.81946
1384180174559,2.80141
1384180234559,2.79907
1384180294559,2.78314
1384180354559,2.81250
1384180414559,2.77502
1384180474559,2.79763
1384180534559,2.81012
1384180594559,2.78634
1384180654559,2.83626
1384180714559,2.80759
1384180774559,2.79627
1384180834559,2.76676
1384180894559,2.75986
1384180954559,2.79567
1384181014559,2.80309
1384181074559,2.78296
1384181134559,2.78518
1384181194559,2.78388
1384181254559,2.79084
1384181314559,2.77786
1384181374559,2.81007
1384181434559,2.76712
1384181494559,2.78525
1384181554559,2.78026
1384181614559,2.81297
1384181674559,2.78269
1384181734559,2.75801
1384181794559,2.76987
1384181854559,2.79851
1384181914559,2.76132
1384181974559,2.77578
1384182034571,2.81633
1384182094571,2.77869
1384182154571,2.81905
1384182214571,2.80891
1384182274571,2.84575
1384182334571,2.79412
1384182394571,2.78280
1384182454571,2.77745
1384182514571,2.80073
1384182574571,2.78581
1384182634571,2.78856
1384182694571,2.80455
1384182754571,2.78896
1384182814571,2.76148
1384182874571,2.77761
1384182934571,2.77807
1384182994571,2.79722
1384183054571,2.78332
1384183114571,2.78477
1384183174571,2.78029
1384183234571,2.78277
1384183294571,2.78326
1384183354571,2.79824
1384183414571,2.76607
1384183474571,2.75320
1384183534571,2.76302
1384183594571,2.78614
1384183654571,2.78275
1384183714571,2.80614
1384183774571,2.76799
1384183834571,2.74878
1384183894571,2.77449
1384183954571,2.75791
1384184014571,2.76744
1384184074571,2.76742
1384184134571,2.78496
1384184194571,2.75209
1384184254571,2.74392
1384184314571,2.77352
1384184374571,2.75201
1384184434571,2.74194
1384184494571,2.74349
1384184554571,2.74939
1384184614571,2.80090
1384184674571,2.75627
1384184734571,2.75733
1384184794571,2.73691
1384184854571,2.71011
1384184914571,2.72444
1384184974571,2.74658
1384185034571,2.75834
1384185094571,2.73995
1384185154571,2.73873
1384185214571,2.70857
1384185274571,2.71673
1384185334571,2.70336
1384185394571,2.71030
1384185454571,2.70639
1384185514571,2.70147
1384185574571,2.72707
1384185634582,2.72042
1384185694582,2.68896
1384185754582,2.70019
1384185814582,2.69100
1384185874582,2.67705
1384185934582,2.69230
1384185994582,2.67579
1384186054582,2.68110
1384186114582,2.69314
1384186174582,2.65402
1384186234582,2.67367
1384186294582,2.64838
1384186354582,2.64949
1384186414582,2.67843
1384186474582,2.66695
1384186534582,2.63933
1384186594582,2.68145
1384186654582,2.68649
1384186714582,2.65589
1384186774582,2.67346
1384186834582,2.65558
1384186894582,2.59822
1384186954582,2.62985
1384187014582,2.68442
1384187074582,2.65459
1384187134582,2.63688
1384187194582,2.66467
1384187254582,2.63320
1384187314582,2.65439
1384187374582,2.66845
1384187434582,2.65992
1384187494582,2.62485
1384187554582,2.61945
1384187614582,2.65171
1384187674582,2.62639
1384187734582,2.65219
1384187794582,2.63324
1384187854582,2.67616
1384187914582,2.64292
1384187974582,2.68247
1384188034582,2.65131
1384188094582,2.63743
1384188154582,2.66058
1384188214582,2.63908
1384188274582,2.62624
1384188334582,2.62777
1384188394582,2.62387
1384188454582,2.65888
1384188514582,2.63079
1384188574582,2.64235
1384188634582,2.66023
1384188694582,2.64707
1384188754582,2.63591
1384188814582,2.65024
1384188874582,2.64622
1384188934582,2.62992
1384188994582,2.61881
1384189054582,2.68451
1384189114582,2.64584
1384189174582,2.65722
1384189234593,2.65945
1384189294593,2.65375
1384189354593,2.68941
1384189414593,2.66241
1384189474593,2.67639
1384189534593,2.65632
1384189594593,2.66907
1384189654593,2.66833
1384189714593,2.67691
1384189774593,2.66688
1384189834593,2.63272
1384189894593,2.64381
1384189954593,2.63307
1384190014593,2.66305
1384190074593,2.65440
1384190134593,2.63436
1384190194593,2.64849
1384190254593,2.65341
1384190314593,2.63472
1384190374593,2.64750
1384190434593,2.63178
1384190494593,2.62484
1384190554593,2.64397
1384190614593,2.66136
1384190674593,2.60615
1384190734593,2.62679
1384190794593,2.65962
1384190854593,2.61047
1384190914593,2.62315
1384190974593,2.64946
1384191034593,2.63368
1384191094593,2.65276
1384191154593,2.61050
1384191214593,2.61825
1384191274593,2.64484
1384191334593,2.62246
1384191394593,2.62893
1384191454593,2.62181
1384191514593,2.64433
1384191574593,2.62949
1384191634593,2.60437
1384191694593,2.59175
1384191754593,2.60387
1384191814593,2.64673
1384191874593,2.63453
1384191934593,2.61884
1384191994593,2.65725
1384192054593,2.63944
1384192114593,2.63731
1384192174593,2.61019
1384192234593,2.61515
1384192294593,2.61432
1384192354593,2.62405
1384192414593,2.61967
1384192474593,2.62530
1384192534593,2.65873
1384192594593,2.64689
1384192654593,2.63205
1384192714593,2.62487
1384192774593,2.64086
1384192834604,2.61977
1384192894604,2.63764
1384192954604,2.63543
1384193014604,2.61128
1384193074604,2.61846
1384193134604,2.63878
1384193194604,2.63714
1384193254604,2.64415
1384193314604,2.65459
1384193374604,2.62110
1384193434604,2.64979
1384193494604,2.64032
1384193554604,2.64400
1384193614604,2.63609
1384193674604,2.63725
1384193734604,2.63085
1384193794604,2.63269
1384193854604,2.63689